User: anonymous   Login
Location: Dannhausen
(51.8650°N, 10.1026°E)
Time: 08:11:37
(UTC+00:00)
Language:

SL-16 R/B - Orbit

View from above orbital plane
View from above orbital plane
View from above satellite
View from above satellite

Ground track
Ground track

The orbit data is extracted from the following two-line orbital elements,

1 31793U 07029B   21167.56655126  .00000029  00000-0  39877-4 0  9993
2 31793  70.9753 201.4856 0001878 273.9677 199.9341 14.14451384721211
Epoch (UTC): 16 June 2021 13:35:50
Eccentricity: 0.0001878
inclination: 70.9753°
perigee height: 843 km
apogee height: 845 km
right ascension of ascending node: 201.4856°
argument of perigee: 273.9677°
revolutions per day: 14.14451384
mean anomaly at epoch: 199.9341°
orbit number at epoch: 72121

The dashed part of the orbit path shows where the satellite is in the earth's shadow,  

DLR